STARLINK-31669, 59515

Orbit data source: Space-Track

STARLINK-31669, 59515 is a payload satellite owned by SpaceX/Seattle (US) in LEO that was launched on Wed, 17 Apr 2024 UTC via an FALCON 9 launch vehicle from the Air Force Eastern Test Range (AFETR). Payload-class satellites include a variety of spacecraft equipped with specific instruments for various scientific and technological missions. These include communications satellites like Starlink; space stations such as the ISS; scientific satellites like the Hubble; Earth observation satellites from companies like Planet Labs, Umbra, and HawkEye 360; GPS; miniature CubeSats for education and research; and military/defense satellites.

Loading next visibility...
Identifier
59515, 2024-073E
Orbit
LEO
Country
Flag of USUS
Related business
Manufacturer
SpaceX/Seattle
Mission
Operational Commercial Communications
Bus & Motor
STARLINK V2M, Unknown motor
Mass
730 kg wet, ~700 kg dry
Launch date (UTC)
2024-04-17 (2 years ago)
Launch vehicle
FALCON 9
Launch site
Air Force Eastern Test Range (AFETR)
Object type
Payload
Rocket body
Debris
Shape & HBR
Box + 2 Pan, 17.7 m
Radar Cross Section
33.884 m², Large (>1 m²)

Expand to show TLE details & history
Last TLE update: 2 days ago

TLE from 2 days ago
0 STARLINK-31669
1 59515U 24073E   26171.11891704  .00000790  00000-0  38213-4 0  9996
2 59515  43.0049  99.3155 0001391 272.5183  87.5510 15.27602491121840
Epoch: 2026-06-20T02:51Z
TLE epoch observation values (Epoch: 2026-06-20T02:51:14.432Z)
Latitude
0.00003°
Longitude
148.16727°
Altitude
482.717 km
Speed
7.626 km/s
True Right ascension
06h 37m 15s
True Declination
0° 00' 00"
Sunlit
Object was in daylight at epoch
Visualization orbit readout
Latitude
Unknown
Longitude
Unknown
Altitude
Unknown
Speed
Unknown
Apparent Right ascension
Unknown
Apparent Declination
Unknown
Sunlit
N/A
Visualization observer readout
Local Sidereal Time
15:32:33
Azimuth
Unknown
Elevation
Unknown
Doppler factor
Unknown
Orbital elements
Apogee altitude
485.881 km
Perigee altitude
483.971 km
Semi-major axis
6,863.063 km
Eccentricity
0.00014
Inclination
43.0049°
RAAN
99.3155°
Arg. of periapsis
272.5183°
True anomaly
87.56693°
Mean anomaly
87.551°
Eccentric anomaly
87.55896°
Mean motion
3.81739 °/min
Orbital period
94.31 mins
BSTAR
0.000038213
Loading maneuver chart data...
Computing Atmospheric mass density...
Loading historical data...
Loading historical data...
Loading historical data...
Loading historical data...
Loading historical data...
Loading historical data...
Loading historical data...

Documentation

Showing up to 5 results
|